Flight Track Log - Related Links

Times and Time Zones

All times are in EDT time to prevent confusion due to time zone crossing. See the PDT4334 flight status page for this flight to view local times or setup timezone preferences in your user account.

Time Position Orientation Groundspeed Altitude Reporting Facility
EDT Latitude Longitude Course Direction KTS MPH feet Rate Location/Type
06:46PM 36.9014 -76.1944 58° Northeast 111 128 500  Level Washington Center
06:47PM 36.9328 -76.1636 38° Northeast 139 160 1,900 1,104 Climbing Washington Center
06:48PM 36.9539 -76.1222 57° Northeast 156 180 2,800 1,051 Climbing Washington Center
06:50PM 36.9875 -76.0625 55° Northeast 153 176 4,300 1,025 Climbing Washington Center
06:51PM 37.1010 -75.8319 50° Northeast  Level FlightAware Approximate
06:51PM 37.0211 -76.0081 52° Northeast 170 196 5,500  Level Washington Center
06:52PM 37.1454 -75.7592 58° Northeast  Level FlightAware Approximate
06:52PM 37.0464 -75.9589 57° Northeast 170 196 6,400  Level Washington Center
06:53PM 37.0778 -75.9094 51° Northeast 170 196 7,300 934 Climbing Washington Center
06:54PM 37.1111 -75.8628 48° Northeast 177 204 8,300 958 Climbing Washington Center
06:55PM 37.1383 -75.8081 58° Northeast 182 209 9,200 958 Climbing Washington Center
06:56PM 37.1678 -75.7561 55° Northeast 182 209 10,200 843 Climbing Washington Center
06:57PM 37.2033 -75.7119 45° Northeast 182 209 10,900 793 Climbing Washington Center
06:58PM 37.2553 -75.7067 North 163 188 11,800 908 Climbing Washington Center
06:59PM 37.3075 -75.7014 North 168 193 12,700 555 Climbing Washington Center
07:00PM 37.3639 -75.6936 North 183 211 12,900 98 Climbing Washington Center
07:01PM 37.4264 -75.6781 11° North 210 242 12,900  Level Washington Center
07:02PM 37.4953 -75.6678 North 230 265 12,900  Level Washington Center
07:03PM 37.5642 -75.6547 North 242 278 12,900  Level Washington Center
07:04PM 37.6350 -75.6442 North 247 284 12,900  Level Washington Center
07:05PM 37.7058 -75.6339 North 252 290 12,900  Level Washington Center
07:06PM 37.7747 -75.6206 North 252 290 12,900  Level Washington Center
07:07PM 37.8458 -75.6050 10° North 252 290 12,900  Level Washington Center
07:08PM 37.9125 -75.5917 North 252 290 12,900  Level Washington Center
07:09PM 37.9708 -75.5392 35° Northeast 252 290 12,900  Level Washington Center
07:10PM 38.0314 -75.4917 32° Northeast 247 284 12,900  Level Washington Center
07:11PM 38.0939 -75.4467 30° Northeast 253 291 12,900 -246 Level Washington Center
07:12PM 38.1625 -75.4042 26° Northeast 253 291 12,400 -504 Descending Washington Center
07:13PM 38.2314 -75.3592 27° Northeast 263 303 11,900 -555 Descending Washington Center
07:14PM 38.3019 -75.3192 24° Northeast 269 310 11,300 -492 Descending Washington Center
07:15PM 38.3644 -75.2767 28° Northeast 274 315 10,900 -202 Descending Washington Center
07:16PM 38.4292 -75.2367 26° Northeast 274 315 10,900  Level Washington Center
07:17PM 38.4936 -75.1911 29° Northeast 268 308 10,900  Level Washington Center
07:18PM 38.5600 -75.1508 25° Northeast 258 297 10,900  Level Washington Center
07:19PM 38.6225 -75.1056 30° Northeast 258 297 10,900  Level Washington Center
07:20PM 38.6869 -75.0678 25° Northeast 258 297 10,900  Level Washington Center
07:21PM 38.7514 -75.0325 23° Northeast 258 297 10,900  Level Washington Center
07:22PM 38.8158 -74.9842 30° Northeast 258 297 10,900 -403 Level Washington Center
07:23PM 38.8822 -74.9464 24° Northeast 258 297 10,100 -915 Descending Washington Center
07:24PM 38.9508 -74.8975 29° Northeast 263 303 9,100 -992 Descending Washington Center
07:25PM 39.0214 -74.8542 26° Northeast 268 308 8,100 -934 Descending Washington Center
07:26PM 39.0878 -74.8161 24° Northeast 268 308 7,200 -857 Descending Washington Center
07:27PM 39.1525 -74.8261 353° North 237 273 6,400 -655 Descending Washington Center
07:28PM 39.2111 -74.8442 347° North 225 259 5,900 -689 Descending Washington Center
07:29PM 39.2675 -74.8650 344° North 213 245 5,000 -504 Descending Washington Center
07:30PM 39.3239 -74.8861 344° North 213 245 4,900 -50 Descending Washington Center
07:31PM 39.3822 -74.9069 345° North 213 245 4,900  Level Washington Center
07:32PM 39.4450 -74.9331 342° North 213 245 4,900 31 Level Washington Center
07:34PM 39.5667 -75.0000 337° Northwest 213 245 5,000 31 Climbing Philadelphia TRACON
07:35PM 39.6167 -75.0500 322° Northwest 215 247 5,000 -105 Level Philadelphia TRACON
07:36PM 39.6500 -75.1000 311° West 225 259 4,800  Descending Philadelphia TRACON
07:37PM 39.7000 -75.1167 346° North 219 252 5,000 -250 Climbing Philadelphia TRACON
07:38PM 39.6833 -75.2000 255° West 232 267 4,300 -500 Descending Philadelphia TRACON
07:39PM 39.6667 -75.2833 255° West 227 261 4,000 -157 Descending Philadelphia TRACON
07:40PM 39.6167 -75.3167 207° Southwest 229 264 4,000  Level Philadelphia TRACON
07:41PM 39.5833 -75.2667 131° Southeast 227 261 4,000 -300 Level Philadelphia TRACON
07:42PM 39.5833 -75.1833 90° East 224 258 3,400 -500 Descending Philadelphia TRACON
07:43PM 39.6333 -75.1333 38° Northeast 209 241 3,000 -450 Descending Philadelphia TRACON
07:44PM 39.6833 -75.1667 333° Northwest 198 228 2,500 -579 Descending Philadelphia TRACON
07:45PM 39.7167 -75.1667 360° North 179 206 1,900 -474 Descending Philadelphia TRACON
07:46PM 39.7667 -75.1833 346° North 164 189 1,600 -381 Descending Philadelphia TRACON
07:47PM 39.8167 -75.2000 346° North 128 147 1,100 -476 Descending Philadelphia TRACON
07:48PM 39.8500 -75.2167 339° North 132 152 600 -500 Descending Philadelphia TRACON

Login

Don't have an account? Register now (free) for customized features, flight alerts, and more!